Regional Weather Roundup
Issued by NWS Lake Charles, LA

Home | Current Version | Previous Version | Text Only | Print | Product List | Glossary On
Versions: 1 2 3 4 5 6 7 8 9 10 11 12 13 14 15 16 17 18 19 20 21 22 23 24 25 26 27
000
ASUS44 KLCH 260510
RWRLCH
RWRLCH
REGIONAL WEATHER ROUNDUP
NATIONAL WEATHER SERVICE LAKE CHARLES LA
1200 AM CDT SUN OCT 26 2014

Note: "fair" indicates few or no clouds below 12,000 feet with no
significant weather and/or obstructions to visibility.


ACROSS SOUTHEAST TEXAS

CITY           SKY/WX    TMP DP  RH WIND       PRES   REMARKS
BEAUMONT       CLEAR     57  55  93 CALM      30.09F
BEAUMONT CITY    N/A     56  56  97 CALM      30.10F
ORANGE         CLEAR    N/A N/A N/A CALM      30.12F HAZE
JASPER         FOG       56  55  97 CALM      30.12F VSB 1/2
$$

ACROSS CENTRAL LOUISIANA

CITY           SKY/WX    TMP DP  RH WIND       PRES   REMARKS
LEESVILLE      CLEAR     58  55  89 CALM      30.08F
FULLERTON        N/A     57  53  86 CALM      30.07F
ALEXANDRIA INT CLEAR     58  56  93 CALM      30.07F
ESLER FIELD    CLEAR     54  54 100 CALM      30.08F
DERIDDER         N/A     58  55  88 CALM      30.11F
OAKDALE        CLEAR     52  50  94 CALM      30.09F
OPELOUSAS        N/A     54  53  99 CALM      30.09S
$$

ACROSS SOUTHWEST AND SOUTH CENTRAL LOUISIANA

CITY           SKY/WX    TMP DP  RH WIND       PRES   REMARKS
SULPHUR        CLEAR     59  58  97 CALM      30.10F
LAKE CHARLES   CLEAR     57  56  96 CALM      30.09F
CHENNAULT INT  CLEAR     58  55  91 CALM      30.10F
CAMERON PHI    CLEAR     70  63  78 W3        30.12F
DEQUINCY         N/A     56  55  97 CALM      30.09F
JENNINGS         N/A     61  58  88 SW3       30.09F
LAFAYETTE      CLEAR     60  58  92 CALM      30.09F
NEW IBERIA     CLEAR     59  55  87 CALM      30.09F
ABBEVILLE        N/A     58  57  96 CALM      30.09F
PATTERSON        N/A     57  55  94 CALM      30.11F VSB 1/2
SALT POINT       N/A     67  64  90 CALM      30.08F
$$

SELECTED SITES ACROSS THE REGION

CITY           SKY/WX    TMP DP  RH WIND       PRES   REMARKS
HOUSTON BUSH   CLEAR     61  59  93 CALM      30.10F
HOUSTON HOBBY  CLEAR     63  60  90 CALM      30.10F
GALVESTON      CLEAR     70  61  73 CALM      30.11F
COLLEGE STAT   CLEAR     68  60  75 S8        30.09S
CONROE         CLEAR     59  57  93 CALM      30.11S
HUNTSVILLE     CLEAR     68  57  68 S7        30.09F
LUFKIN         CLEAR     64  60  87 E3        30.09S
SHREVEPORT     CLEAR     66  62  87 CALM      30.06F
MONROE         CLEAR     64  59  83 S3        30.07F
NATCHEZ MS     CLEAR     57  54  88 S3        30.09F
BATON ROUGE    CLEAR     58  55  90 CALM      30.09F
N.O. INTL ARPT CLEAR     64  58  80 CALM      30.08F
SLIDELL        CLEAR     58  55  90 CALM      30.07F
$$

MARINE REPORTS

STATION/POSITION TIME  TEMP    WIND        PRES    VSBY  WAVE
                       AIR SEA DIR/SP/G                  HT/PER
                 (UTC) (F)     (DEG/KT/KT) (MB)    (MI)  (FT/S)
BUOY 30 S HIGH I 0500   74 77  170/  4/  6 1019.1F         1/ 7
SEA RIM ST PARK  0500   72     220/  3/  3 1019.6F
PORT ARTHUR      0500      73  230/  2/  2 1019.3F
SABINE PASS N    0500   69 73  230/  3/  4 1019.3F
TEXAS POINT      0500   72 74  200/  5/  6 1019.4F
CALCASIEU PASS   0500   71 72  260/  4/  5   N/A
LK CHARLES BEACH 0500   67 75              1019.0F
MARSH ISLAND     NOT AVBL
FRESH WATER LOCK 0500   65 72  270/  5/  5 1019.0F
AMERADA PASS     0500   69 71  270/  3/  5 1018.8F
$$



USA.gov is the U.S. government's official web portal to all federal, state and local government web resources and services.